Hourly Weather Chamalieres

Today, 16 June, Wednesday

Time Temperature Precipitation Wind Pressure Humidity
00:00 +19°C° 0 mm 1 mps 726 mmHg 80%
01:00 +19°C° 0 mm 1 mps 726 mmHg 81%
02:00 +19°C° 0 mm 1 mps 725 mmHg 82%
03:00 +18°C° 0 mm 2 mps 725 mmHg 82%
04:00 +20°C° 0 mm 1 mps 725 mmHg 79%
05:00 +21°C° 0 mm 1 mps 725 mmHg 77%
06:00 +23°C° 0 mm 1 mps 725 mmHg 74%
07:00 +25°C° 0 mm 1 mps 725 mmHg 65%
08:00 +27°C° 0 mm 1 mps 725 mmHg 57%
09:00 +30°C° 0 mm 2 mps 725 mmHg 48%
10:00 +31°C° 0 mm 2 mps 724 mmHg 43%
11:00 +32°C° 0 mm 2 mps 724 mmHg 39%
12:00 +34°C° 0 mm 2 mps 724 mmHg 34%
13:00 +34°C° 0 mm 2 mps 724 mmHg 37%
14:00 +32°C° 0 mm 2 mps 723 mmHg 40%
15:00 +32°C° 0 mm 2 mps 723 mmHg 42%
16:00 +31°C° 0 mm 1 mps 723 mmHg 49%
17:00 +29°C° 0 mm 1 mps 722 mmHg 55%
18:00 +28°C° 0 mm 1 mps 722 mmHg 61%
19:00 +26°C° 0.1 mm 1 mps 722 mmHg 67%
20:00 +24°C° 0.1 mm 1 mps 722 mmHg 73%
21:00 +22°C° 0.1 mm 1 mps 722 mmHg 79%
22:00 +20°C° 0.2 mm 2 mps 723 mmHg 82%
23:00 +20°C° 0.2 mm 2 mps 724 mmHg 85%

Tomorrow, 17 June, Thursday

Time Temperature Precipitation Wind Pressure Humidity
00:00 +19°C° 0.2 mm 3 mps 724 mmHg 88%
01:00 +18°C° 0.1 mm 2 mps 724 mmHg 90%
02:00 +18°C° 0.1 mm 2 mps 724 mmHg 92%
03:00 +18°C° 0.1 mm 1 mps 723 mmHg 94%
04:00 +19°C° 0 mm 1 mps 724 mmHg 91%
05:00 +20°C° 0 mm 1 mps 724 mmHg 88%
06:00 +20°C° 0 mm 2 mps 724 mmHg 86%
07:00 +23°C° 0 mm 2 mps 724 mmHg 73%
08:00 +26°C° 0 mm 2 mps 724 mmHg 61%
09:00 +28°C° 0 mm 2 mps 724 mmHg 48%
10:00 +29°C° 0 mm 3 mps 723 mmHg 44%
11:00 +31°C° 0 mm 3 mps 723 mmHg 40%
12:00 +33°C° 0 mm 3 mps 723 mmHg 37%
13:00 +31°C° 0 mm 3 mps 723 mmHg 41%
14:00 +29°C° 0 mm 3 mps 723 mmHg 46%
15:00 +28°C° 0 mm 3 mps 723 mmHg 50%
16:00 +27°C° 0.1 mm 3 mps 723 mmHg 57%
17:00 +25°C° 0.1 mm 3 mps 723 mmHg 63%
18:00 +23°C° 0.1 mm 2 mps 723 mmHg 70%
19:00 +21°C° 0 mm 2 mps 723 mmHg 69%
20:00 +20°C° 0 mm 2 mps 723 mmHg 67%
21:00 +20°C° 0 mm 2 mps 723 mmHg 66%
22:00 +19°C° 0.1 mm 2 mps 723 mmHg 68%
23:00 +19°C° 0.1 mm 2 mps 722 mmHg 71%

Day after tomorrow, 18 June, Friday

Time Temperature Precipitation Wind Pressure Humidity
00:00 +18°C° 0.1 mm 2 mps 722 mmHg 73%
01:00 +18°C° 0.2 mm 2 mps 723 mmHg 78%
02:00 +18°C° 0.2 mm 2 mps 723 mmHg 84%
03:00 +17°C° 0.2 mm 2 mps 723 mmHg 89%
04:00 +18°C° 0 mm 2 mps 723 mmHg 89%
05:00 +19°C° 0 mm 2 mps 723 mmHg 88%
06:00 +19°C° 0 mm 2 mps 724 mmHg 87%
07:00 +21°C° 0 mm 3 mps 724 mmHg 79%
08:00 +24°C° 0 mm 3 mps 724 mmHg 70%
09:00 +25°C° 0 mm 4 mps 724 mmHg 62%
10:00 +26°C° 0 mm 4 mps 725 mmHg 56%
11:00 +28°C° 0 mm 4 mps 725 mmHg 50%
12:00 +29°C° 0 mm 4 mps 725 mmHg 44%
13:00 +29°C° 0 mm 4 mps 725 mmHg 43%
14:00 +29°C° 0 mm 4 mps 725 mmHg 42%
15:00 +29°C° 0 mm 3 mps 725 mmHg 42%
16:00 +28°C° 0 mm 3 mps 725 mmHg 47%
17:00 +28°C° 0 mm 2 mps 725 mmHg 52%
18:00 +27°C° 0 mm 1 mps 725 mmHg 57%
19:00 +25°C° 0 mm 1 mps 725 mmHg 64%
20:00 +22°C° 0 mm 1 mps 726 mmHg 71%
21:00 +20°C° 0 mm 1 mps 726 mmHg 77%
22:00 +20°C° 0 mm 1 mps 726 mmHg 81%
23:00 +19°C° 0 mm 1 mps 726 mmHg 85%

19 June, Saturday

Time Temperature Precipitation Wind Pressure Humidity
00:00 +18°C° 0 mm 1 mps 726 mmHg 89%
01:00 +18°C° 0 mm 1 mps 726 mmHg 91%
02:00 +18°C° 0 mm 1 mps 726 mmHg 94%
03:00 +18°C° 0 mm 1 mps 725 mmHg 96%
04:00 +19°C° 0 mm 1 mps 725 mmHg 93%
05:00 +20°C° 0 mm 1 mps 725 mmHg 90%
06:00 +20°C° 0 mm 1 mps 725 mmHg 86%
07:00 +23°C° 0 mm 1 mps 725 mmHg 75%
08:00 +25°C° 0 mm 2 mps 725 mmHg 63%
09:00 +27°C° 0 mm 2 mps 725 mmHg 52%
10:00 +28°C° 0 mm 2 mps 724 mmHg 53%
11:00 +28°C° 0 mm 3 mps 724 mmHg 53%
12:00 +28°C° 0 mm 3 mps 724 mmHg 54%
13:00 +29°C° 0 mm 3 mps 723 mmHg 52%
14:00 +29°C° 0 mm 4 mps 723 mmHg 50%
15:00 +30°C° 0 mm 4 mps 723 mmHg 48%
16:00 +29°C° 0 mm 4 mps 722 mmHg 50%
17:00 +27°C° 0 mm 5 mps 721 mmHg 52%
18:00 +26°C° 0 mm 5 mps 721 mmHg 54%
19:00 +26°C° 0 mm 5 mps 721 mmHg 51%
20:00 +26°C° 0 mm 5 mps 721 mmHg 48%
21:00 +26°C° 0 mm 5 mps 721 mmHg 46%
22:00 +23°C° 0 mm 4 mps 721 mmHg 55%
23:00 +21°C° 0 mm 3 mps 721 mmHg 64%

20 June, Sunday

Time Temperature Precipitation Wind Pressure Humidity
00:00 +19°C° 0 mm 2 mps 721 mmHg 73%
01:00 +18°C° 0.6 mm 2 mps 721 mmHg 80%
02:00 +17°C° 0.6 mm 2 mps 721 mmHg 87%
03:00 +16°C° 0.6 mm 2 mps 721 mmHg 94%
04:00 +16°C° 1.2 mm 2 mps 721 mmHg 94%
05:00 +17°C° 1.2 mm 2 mps 721 mmHg 94%
06:00 +18°C° 1.2 mm 1 mps 721 mmHg 94%
07:00 +19°C° 0.1 mm 2 mps 721 mmHg 80%
08:00 +23°C° 0.1 mm 2 mps 721 mmHg 67%
09:00 +25°C° 0.1 mm 2 mps 722 mmHg 53%
10:00 +26°C° 0.1 mm 2 mps 721 mmHg 51%
11:00 +27°C° 0.1 mm 2 mps 721 mmHg 48%
12:00 +28°C° 0.1 mm 3 mps 721 mmHg 46%
13:00 +29°C° 0 mm 3 mps 720 mmHg 43%
14:00 +29°C° 0 mm 4 mps 719 mmHg 40%
15:00 +30°C° 0 mm 4 mps 719 mmHg 37%
16:00 +27°C° 0.3 mm 3 mps 719 mmHg 51%
17:00 +24°C° 0.3 mm 2 mps 720 mmHg 65%
18:00 +20°C° 0.3 mm 2 mps 720 mmHg 79%
19:00 +20°C° 1 mm 1 mps 720 mmHg 84%
20:00 +19°C° 1 mm 1 mps 721 mmHg 90%
21:00 +15°C° 1 mm 0 mps 721 mmHg 96%
22:00 +16°C° 0.5 mm 1 mps 721 mmHg 96%
23:00 +16°C° 0.5 mm 1 mps 721 mmHg 97%

21 June, Monday

Time Temperature Precipitation Wind Pressure Humidity
00:00 +15°C° 0.5 mm 1 mps 720 mmHg 97%
01:00 +15°C° 0.4 mm 1 mps 720 mmHg 97%
02:00 +15°C° 0.4 mm 1 mps 720 mmHg 97%
03:00 +14°C° 0.4 mm 1 mps 719 mmHg 97%
04:00 +15°C° 0.1 mm 1 mps 719 mmHg 96%
05:00 +16°C° 0.1 mm 1 mps 719 mmHg 94%
06:00 +18°C° 0.1 mm 1 mps 719 mmHg 93%
07:00 +20°C° 0.5 mm 1 mps 719 mmHg 86%
08:00 +21°C° 0.5 mm 1 mps 719 mmHg 78%
09:00 +23°C° 0.5 mm 1 mps 719 mmHg 71%
10:00 +23°C° 0.7 mm 1 mps 719 mmHg 70%
11:00 +23°C° 0.7 mm 2 mps 720 mmHg 69%
12:00 +24°C° 0.7 mm 2 mps 720 mmHg 68%
13:00 +24°C° 0.5 mm 3 mps 720 mmHg 66%
14:00 +24°C° 0.5 mm 3 mps 720 mmHg 64%
15:00 +24°C° 0.5 mm 3 mps 720 mmHg 61%
16:00 +22°C° 0.1 mm 4 mps 720 mmHg 63%
17:00 +21°C° 0.1 mm 4 mps 720 mmHg 65%
18:00 +20°C° 0.1 mm 4 mps 720 mmHg 67%
19:00 +19°C° 0 mm 3 mps 721 mmHg 73%
20:00 +17°C° 0 mm 2 mps 721 mmHg 79%
21:00 +16°C° 0 mm 2 mps 722 mmHg 84%
22:00 +15°C° 0 mm 1 mps 722 mmHg 88%
23:00 +14°C° 0 mm 1 mps 722 mmHg 91%
Show more

We Need Your Consent

Meteoprog and our Service Providers may store and access personal data such as cookies, device identifiers or other similar technologies on your device and process such data to personalise content and ads, as well as provide social media features and to analyse the traffic.

  • Store and/or access information on your device

    Cookies, device identifiers or other information can be stored or accessed on your device for the purposes indicated above.

  • Personalised ads and content, ad and content measurement, audience insights, and products development

    Ads and content can be personalised based on a profile. More data can be added to better personalise ads and content. Ad and content performance can be measured. Insights about the audience who saw the ads and content can be derived. Such data can be used to develop or improve user’s experience, systems and software.

By clicking ‘I Agree’ you will allow the use of indicated cookies, device identifiers, web beacons or other similar technologies. Your settings can be changed in the browser on your device.

For certain purposes, legitimate interests may be relied on, rather than consent. You can read more about this in our Privacy and Cookie Policy.